TimeCDT,TemperatureF,Dew PointF,Humidity,Sea Level PressureIn,VisibilityMPH,Wind Direction,Wind SpeedMPH,Gust SpeedMPH,PrecipitationIn,Events,Conditions,WindDirDegrees,DateUTC
12:55 AM,30.0,19.0,64,30.30,10.0,ESE,4.6,-,N/A,,Clear,120,2013-04-02 05:55:00
1:55 AM,27.0,18.0,69,30.30,10.0,ESE,4.6,-,N/A,,Clear,110,2013-04-02 06:55:00
2:55 AM,28.0,17.1,63,30.31,10.0,Calm,Calm,-,N/A,,Clear,0,2013-04-02 07:55:00
3:55 AM,28.0,18.0,66,30.30,10.0,ESE,3.5,-,N/A,,Clear,110,2013-04-02 08:55:00
4:55 AM,27.0,18.0,69,30.30,10.0,ESE,3.5,-,N/A,,Clear,120,2013-04-02 09:55:00
5:55 AM,28.0,19.9,72,30.30,10.0,Calm,Calm,-,N/A,,Clear,0,2013-04-02 10:55:00
6:55 AM,28.0,19.9,72,30.31,10.0,Calm,Calm,-,N/A,,Clear,0,2013-04-02 11:55:00
7:55 AM,28.9,21.0,72,30.32,10.0,Calm,Calm,-,N/A,,Partly Cloudy,0,2013-04-02 12:55:00
8:55 AM,30.9,21.0,67,30.35,10.0,ESE,4.6,-,N/A,,Clear,120,2013-04-02 13:55:00
9:55 AM,37.0,19.9,50,30.34,10.0,East,6.9,-,N/A,,Clear,100,2013-04-02 14:55:00
10:55 AM,39.9,19.0,43,30.33,10.0,East,8.1,-,N/A,,Clear,90,2013-04-02 15:55:00
11:55 AM,44.1,19.9,38,30.32,10.0,East,9.2,-,N/A,,Clear,80,2013-04-02 16:55:00
12:55 PM,46.0,21.9,39,30.31,10.0,Variable,5.8,-,N/A,,Clear,0,2013-04-02 17:55:00
1:55 PM,48.9,21.9,35,30.29,10.0,Calm,Calm,-,N/A,,Clear,0,2013-04-02 18:55:00
2:55 PM,50.0,21.9,33,30.27,10.0,SE,11.5,-,N/A,,Clear,130,2013-04-02 19:55:00
3:55 PM,52.0,21.9,31,30.24,10.0,East,10.4,-,N/A,,Clear,80,2013-04-02 20:55:00
4:55 PM,53.1,21.9,30,30.23,10.0,SE,6.9,-,N/A,,Clear,140,2013-04-02 21:55:00
5:55 PM,53.1,21.0,29,30.23,10.0,SE,8.1,-,N/A,,Clear,140,2013-04-02 22:55:00
6:55 PM,51.1,21.0,31,30.23,10.0,ESE,6.9,-,N/A,,Clear,120,2013-04-02 23:55:00
7:55 PM,44.1,21.9,42,30.24,10.0,SE,5.8,-,N/A,,Clear,130,2013-04-03 00:55:00
8:55 PM,39.0,21.9,50,30.25,10.0,SE,4.6,-,N/A,,Clear,140,2013-04-03 01:55:00
9:55 PM,39.0,21.0,49,30.26,10.0,SE,3.5,-,N/A,,Clear,130,2013-04-03 02:55:00
10:55 PM,37.0,21.0,52,30.26,10.0,SE,3.5,-,N/A,,Clear,130,2013-04-03 03:55:00
11:55 PM,35.1,21.9,59,30.27,10.0,SE,5.8,-,N/A,,Clear,140,2013-04-03 04:55:00